indice_tiempo,ipc_2016_nivel_general,ipc_2016_bienes,ipc_2016_servicios
2016-04-01,85.5254,86.5786,83.9892
2016-05-01,89.1118,90.6974,86.7991
2016-06-01,91.8528,92.6532,90.6853
2016-07-01,93.7328,94.0201,93.3136
2016-08-01,93.9221,94.7672,92.6895
2016-09-01,95.0014,96.8993,92.2331
2016-10-01,97.2428,98.2076,95.8356
2016-11-01,98.8166,99.418,97.9394
2016-12-01,100.0,100.0,100.0
2017-01-01,101.313,101.0205,101.7397
2017-02-01,103.8085,102.4793,105.7472
2017-03-01,106.2627,105.1793,107.8429
2017-04-01,109.0613,107.7352,110.9956
2017-05-01,110.4607,109.0355,112.5395
2017-06-01,111.9943,110.2676,114.5127
2017-07-01,113.9199,111.4245,117.5597
2017-08-01,115.6031,112.9325,119.4983
2017-09-01,117.9656,115.3613,121.7642
2017-10-01,119.4985,117.0753,123.033
2017-11-01,120.8941,118.7271,124.0548
2017-12-01,125.0392,120.0339,132.3399
2018-01-01,127.0147,122.2566,133.955
2018-02-01,130.2913,124.5606,138.6501
2018-03-01,133.5028,127.2606,142.6077
2018-04-01,136.938,129.7698,147.3934
2018-05-01,139.58,133.5831,148.3271
2018-06-01,145.0582,139.1698,153.647
2018-07-01,149.1178,144.3138,156.1248
2018-08-01,155.1747,148.4797,164.94
2018-09-01,165.4903,162.5426,169.7897
2018-10-01,173.8549,171.8817,176.733
2018-11-01,178.877,177.9269,180.2629
2018-12-01,183.9381,181.2585,187.8466
2019-01-01,189.1236,186.3028,193.2381
2019-02-01,196.3597,192.8064,201.5427
2019-03-01,205.7679,202.7853,210.1183
2019-04-01,212.4469,210.0294,215.973
2019-05-01,218.8793,216.4907,222.3634
2019-06-01,224.6105,222.3189,227.953
2019-07-01,229.4286,226.5723,233.5948
2019-08-01,238.3069,238.1722,238.5033
2019-09-01,252.1482,255.9431,246.613
2019-10-01,260.2101,264.5957,253.8132
2019-11-01,270.8019,278.2049,260.004
2019-12-01,281.1775,286.9065,272.8213
2020-01-01,286.4913,293.3383,276.5043
2020-02-01,291.737,299.3352,280.6542
2020-03-01,302.2274,309.1161,292.1795
2020-04-01,306.4483,316.2603,292.1368
2020-05-01,311.0922,323.2849,293.3082
2020-06-01,317.4661,332.8398,295.0422
2020-07-01,322.6791,339.7904,297.7206
2020-08-01,331.6957,351.9757,302.1154
2020-09-01,340.902,365.7001,304.7317
2020-10-01,353.0444,382.5081,310.069
2020-11-01,363.5381,394.0756,318.9963
2020-12-01,377.0507,406.5761,333.9852
2021-01-01,389.4454,421.2386,343.0722
2021-02-01,403.4854,438.4934,352.423
2021-03-01,424.4539,464.1213,366.5955
2021-04-01,441.8955,485.556,378.2127
2021-05-01,456.7856,501.9753,390.8722
2021-06-01,470.784,519.333,399.9708
2021-07-01,485.3036,533.8429,414.5046
2021-08-01,497.9371,547.4431,425.7281
2021-09-01,517.0425,567.8049,443.001
2021-10-01,536.5423,589.1523,459.8059
2021-11-01,548.7073,602.1666,470.7321
2021-12-01,570.9981,625.804,491.0588
2022-01-01,593.4219,650.5218,510.1366
2022-02-01,620.5007,688.1137,521.8808
2022-03-01,661.8688,732.8464,558.3415
2022-04-01,702.829,781.945,587.4311
2022-05-01,736.3637,822.0689,611.3547
2022-06-01,776.6701,864.0663,649.1949
2022-07-01,833.8894,924.9143,701.1212
2022-08-01,891.851,994.2863,742.4397
2022-09-01,945.6836,1066.4384,769.5515
2022-10-01,1007.6275,1128.8218,830.8546
2022-11-01,1058.0026,1177.6926,883.4239
2022-12-01,1114.5359,1241.6205,929.1712
2023-01-01,1180.967,1305.0811,999.9352
2023-02-01,1259.9952,1399.94,1055.8728
2023-03-01,1358.4995,1510.689,1136.5172
2023-04-01,1475.1378,1652.9454,1215.7891
2023-05-01,1592.4496,1775.5557,1325.3726
2023-06-01,1685.1612,1868.674,1417.491
2023-07-01,1789.4275,1979.303,1512.4767
2023-08-01,2008.8079,2243.5089,1666.4749
2023-09-01,2253.4785,2536.8554,1840.1474
2023-10-01,2447.565,2767.3838,1981.08
2023-11-01,2763.435,3161.0783,2183.4358
2023-12-01,3456.6426,4108.2388,2506.2298
2024-01-01,4132.479,4939.177,2955.8361
2024-02-01,4751.2725,5571.5329,3554.8476
2024-03-01,5296.8225,6155.1149,4044.9244
